EW0538 Weather Reports


time (UTC)temp
F
wind
direction
speed
knots
gust
knots
rain 1hr
in
rain 24hr
in
rain mn
in
humidity
%
barometer
mb
20260906110328 50 145 0.0 0.0 0.00 0.00 0.00 85 1011.9
20260906105316 50 146 0.0 0.0 0.00 0.00 0.00 86 1011.8
20260906104255 49 146 0.0 0.0 0.00 0.00 0.00 86 1011.6
20260906103251 49 145 0.0 0.0 0.00 0.00 0.00 87 1011.6
20260906102300 49 145 0.0 0.0 0.00 0.00 0.00 87 1011.7
20260906101255 49 145 0.0 0.0 0.00 0.00 0.00 87 1011.6
20260906100252 49 146 0.0 0.0 0.00 0.00 0.00 85 1011.6
20260906094136 49 146 0.0 0.0 0.00 0.00 0.00 86 1011.3
20260906093140 49 146 0.0 0.0 0.00 0.00 0.00 85 1011.2
20260906092143 50 124 0.0 0.0 0.00 0.00 0.00 86 1011.1
20260906091207 50 124 0.0 0.0 0.00 0.00 0.00 84 1011.0
20260906090728 50 124 0.0 0.0 0.00 0.00 0.00 84 1010.8
20260906085715 50 124 0.0 0.0 0.00 0.00 0.00 84 1010.8
20260906084704 50 146 0.0 0.0 0.00 0.00 0.00 85 1010.6
20260906083640 51 146 0.0 0.0 0.00 0.00 0.00 81 1010.6
20260906082639 51 146 0.0 0.0 0.00 0.00 0.00 83 1010.6
20260906081637 52 148 0.0 0.0 0.00 0.00 0.00 82 1010.5
20260906080615 52 129 0.0 0.0 0.00 0.00 0.00 83 1010.7
20260906075601 52 129 0.0 0.0 0.00 0.00 0.00 83 1010.6
20260906074607 53 129 0.0 0.0 0.00 0.00 0.00 82 1010.5
20260906072500 53 130 0.0 0.0 0.00 0.00 0.00 80 1010.4
20260906071454 54 129 0.0 0.0 0.00 0.00 0.00 79 1010.4
20260906070424 54 130 0.0 0.0 0.00 0.00 0.00 78 1010.4
20260906065356 55 130 0.0 0.0 0.00 0.00 0.00 78 1010.2
20260906064404 55 129 0.0 0.0 0.00 0.00 0.00 77 1010.3
20260906063410 55 129 0.0 0.0 0.00 0.00 0.00 78 1010.3
20260906062338 55 129 0.0 0.0 0.00 0.00 0.00 77 1010.2
20260906061308 55 130 0.0 0.0 0.00 0.00 0.00 77 1010.1
20260906055220 55 129 0.0 0.0 0.00 0.00 0.00 78 1010.0
20260906053045 56 129 0.0 0.0 0.00 0.00 0.00 74 1009.9
20260906052042 57 130 0.0 0.0 0.00 0.00 0.00 72 1009.8
20260906051008 57 129 0.0 0.0 0.00 0.00 0.00 70 1009.7
20260906045947 58 130 0.0 0.0 0.00 0.00 0.00 66 1009.6
20260906043819 60 130 0.0 0.0 0.00 0.00 0.00 62 1009.5
20260906042809 61 148 0.0 0.0 0.00 0.00 0.00 62 1009.4
20260906040713 63 148 0.0 0.0 0.00 0.00 0.00 55 1009.0
20260906035657 63 99 0.0 0.0 0.00 0.00 0.00 57 1009.0
20260906034633 64 99 0.0 0.0 0.00 0.00 0.00 54 1008.8
20260906033650 64 130 0.0 0.0 0.00 0.00 0.00 51 1008.6
20260906032630 65 148 0.0 0.0 0.00 0.00 0.00 53 1008.5
20260906031653 65 140 0.0 0.0 0.00 0.00 0.00 51 1008.5
20260906025511 67 140 0.0 0.0 0.00 0.00 0.00 50 1007.8
20260906023337 70 148 0.0 0.9 0.00 0.00 0.00 43 1007.3
20260906022307 71 117 0.0 0.0 0.00 0.00 0.00 41 1007.1
20260906021329 73 54 0.0 0.0 0.00 0.00 0.00 38 1006.8
20260906020341 75 54 0.0 0.0 0.00 0.00 0.00 33 1006.6
20260906015342 75 262 0.0 1.7 0.00 0.00 0.00 32 1006.4
20260906014340 76 240 0.0 1.7 0.00 0.00 0.00 33 1006.2
20260906012209 79 35 0.0 6.1 0.00 0.00 0.00 30 1006.2
20260906011207 80 264 0.0 3.5 0.00 0.00 0.00 30 1006.1
20260906010225 82 339 0.0 3.5 0.00 0.00 0.00 28 1006.1
20260906005214 82 5 0.0 4.3 0.00 0.00 0.00 27 1006.1
20260906004207 83 347 0.9 4.3 0.00 0.00 0.00 27 1006.2
20260906003207 83 342 0.9 5.2 0.00 0.00 0.00 27 1006.1
20260906002212 83 20 0.9 10.4 0.00 0.00 0.00 27 1006.1
20260906000128 82 354 2.6 10.4 0.00 0.00 0.00 27 1005.9
20260905235126 83 12 4.3 12.2 0.00 0.00 0.00 28 1005.9
20260905234100 83 338 4.3 12.2 0.00 0.00 0.00 27 1006.0
20260905233040 84 4 3.5 8.7 0.00 0.00 0.00 27 1005.8
20260905232059 84 357 3.5 9.6 0.00 0.00 0.00 26 1005.8
20260905231049 84 347 2.6 10.4 0.00 0.00 0.00 26 1005.7
20260905230111 84 338 2.6 10.4 0.00 0.00 0.00 27 1005.7
20260905225058 85 322 1.7 8.7 0.00 0.00 0.00 26 1005.8
20260905224035 85 15 1.7 8.7 0.00 0.00 0.00 25 1005.9
20260905223013 86 225 1.7 7.8 0.00 0.00 0.00 23 1005.8
20260905222009 88 8 0.9 7.8 0.00 0.00 0.00 22 1005.9
20260905220956 88 273 1.7 7.8 0.00 0.00 0.00 22 1006.2
20260905213746 87 205 0.9 7.8 0.00 0.00 0.00 23 1006.6
20260905211615 87 273 1.7 13.9 0.00 0.00 0.00 20 1007.0
20260905210610 86 60 3.5 14.8 0.00 0.00 0.00 20 1007.0
20260905205618 87 297 3.5 14.8 0.00 0.00 0.00 20 1007.3
20260905204636 88 316 0.9 6.1 0.00 0.00 0.00 20 1007.3
20260905203623 88 328 0.9 6.1 0.00 0.00 0.00 21 1007.5
20260905202635 88 346 0.0 4.3 0.00 0.00 0.00 20 1007.5
20260905201619 87 271 0.9 4.3 0.00 0.00 0.00 22 1007.5
20260905200625 86 290 0.0 7.0 0.00 0.00 0.00 23 1007.8
20260905195643 87 285 1.7 7.0 0.00 0.00 0.00 22 1007.8
20260905193600 86 134 0.0 2.6 0.00 0.00 0.00 24 1008.1
20260905192559 84 264 0.0 4.3 0.00 0.00 0.00 25 1008.3
20260905190436 84 98 0.9 0.0 0.00 0.00 0.00 26 1008.6
20260905185412 84 235 0.0 4.3 0.00 0.00 0.00 26 1008.6
20260905184412 84 359 0.0 0.9 0.00 0.00 0.00 27 1008.8
20260905183354 85 6 0.0 1.7 0.00 0.00 0.00 25 1009.0
20260905182328 84 8 0.0 0.9 0.00 0.00 0.00 30 1009.2
20260905181321 82 275 0.0 0.0 0.00 0.00 0.00 31 1009.4
20260905180307 81 321 0.0 2.6 0.00 0.00 0.00 33 1009.7
20260905175309 80 13 0.0 2.6 0.00 0.00 0.00 32 1009.9
20260905174250 79 325 0.0 0.0 0.00 0.00 0.00 33 1010.2
20260905173304 78 22 0.0 2.6 0.00 0.00 0.00 33 1010.4
20260905172233 76 304 0.0 1.7 0.00 0.00 0.00 37 1010.6
20260905171232 75 25 0.0 2.6 0.00 0.00 0.00 38 1010.7
20260905170245 74 32 0.0 1.7 0.00 0.00 0.00 39 1011.0
20260905164047 72 131 0.0 1.7 0.00 0.00 0.00 39 1011.4
20260905163040 73 153 0.0 0.0 0.00 0.00 0.00 42 1011.6
20260905162019 70 343 0.0 0.0 0.00 0.00 0.00 45 1011.7
20260905161033 69 346 0.0 0.0 0.00 0.00 0.00 43 1011.9
20260905160035 68 54 0.0 0.0 0.00 0.00 0.00 44 1012.1
20260905155032 67 353 0.0 0.0 0.00 0.00 0.00 47 1012.0
20260905154023 68 48 0.0 0.0 0.00 0.00 0.00 46 1012.2
20260905153031 66 119 0.0 0.0 0.00 0.00 0.00 47 1012.3
20260905152008 65 25 0.0 0.0 0.00 0.00 0.00 51 1012.4
20260905150958 66 4 0.0 0.0 0.00 0.00 0.00 48 1012.5
20260905150012 64 4 0.0 0.9 0.00 0.00 0.00 51 1012.6
20260905144956 64 118 0.0 0.0 0.00 0.00 0.00 53 1012.9
20260905143951 62 318 0.0 0.0 0.00 0.00 0.00 57 1013.0
20260905142948 61 4 0.0 1.7 0.00 0.00 0.00 57 1013.1
20260905141932 59 135 0.0 0.0 0.00 0.00 0.00 63 1013.4
20260905140901 57 135 0.0 0.0 0.00 0.00 0.00 69 1013.4
20260905135834 54 135 0.0 0.0 0.00 0.00 0.00 75 1013.5
20260905134837 50 135 0.0 0.0 0.00 0.00 0.00 84 1013.5
20260905133836 48 136 0.0 0.0 0.00 0.00 0.00 87 1013.3
20260905132852 48 136 0.0 0.0 0.00 0.00 0.00 87 1013.2
20260905131834 47 136 0.0 0.0 0.00 0.00 0.00 89 1013.0
20260905130827 47 136 0.0 0.0 0.00 0.00 0.00 89 1013.0
20260905125807 47 145 0.0 0.0 0.00 0.00 0.00 89 1012.8
20260905123701 48 145 0.0 0.0 0.00 0.00 0.00 87 1012.4
20260905121534 48 154 0.0 0.0 0.00 0.00 0.00 87 1012.3
20260905120559 49 154 0.0 0.0 0.00 0.00 0.00 85 1012.3
20260905115540 49 154 0.0 0.0 0.00 0.00 0.00 86 1012.3
20260905113435 50 128 0.0 0.0 0.00 0.00 0.00 85 1012.1
20260905112405 50 128 0.0 0.0 0.00 0.00 0.00 84 1012.2
20260905111346 50 129 0.0 0.0 0.00 0.00 0.00 84 1012.1